Eureka, NV

6:51 AM PDT on October 19, 2017 (GMT -0700)
Eureka

Weather History for KP68 - March, 2013

Change the Weather History Date:

Monday, March 25, 2013

  Actual Average Record
Temperature  
Mean Temperature 45 °F 39 °F  
Max Temperature 64 °F 53 °F 69 °F (2014)
Min Temperature 25 °F 25 °F 0 °F (1995)
Degree Days  
Heating Degree Days 20 26  
Month to date heating degree days 615 719  
Since 1 July heating degree days 5703 6004  
Cooling Degree Days 0 0  
Month to date cooling degree days 0 0  
Year to date cooling degree days 0 0  
Moisture  
Dew Point 17 °F    
Average Humidity 40    
Maximum Humidity 68    
Minimum Humidity 12    
Precipitation  
Precipitation 0.00 in 0.03 in 0.43 in (2017)
Month to date precipitation 0.08 0.73  
Year to date precipitation 1.99 2.33  
Sea Level Pressure  
Sea Level Pressure 29.92 in    
Wind  
Wind Speed 6 mph (SSW)    
Max Wind Speed 16 mph    
Max Gust Speed 23 mph    
T = Trace of Precipitation, MM = Missing Value Source: NWS Daily Summary

Daily Weather History Graph

Daily Weather History Graph

Search for Another Location

Airport or City:

Trip Planner

Search our weather history database for the weather conditions in past years. The results will help you decide how hot, cold, wet, or windy it might be!

Date:

Astronomy

Mar. 25, 2013 Rise Set
Actual Time 6:38 AM PDT 7:01 PM PDT
Civil Twilight 6:11 AM PDT 7:28 PM PDT
Nautical Twilight 5:40 AM PDT 7:59 PM PDT
Astronomical Twilight 5:08 AM PDT 8:32 PM PDT
Moon 5:37 PM PDT (3/25) 5:24 AM PDT (3/25)
Length of Visible Light 13h 16m
Length of Day
12h 22m
Waxing Gibbous, 97% of the Moon is Illuminated
Mar 25
Waxing Gibbous
Mar 27
Full
Apr 2
Last Quarter
Apr 10
New
Apr 18
First Quarter

Hourly Weather History & Observations

Time (PDT) Temp. Windchill Dew Point Humidity Pressure Visibility Wind Dir Wind Speed Gust Speed Precip Events Conditions
12:53 AM 35.1 °F 32.2 °F 18.0 °F 50% 29.99 in - SSW 3.5 mph - N/A   Unknown
1:53 AM 33.1 °F 28.7 °F 19.9 °F 59% 29.99 in - South 4.6 mph - N/A   Unknown
2:53 AM 32.0 °F - 18.0 °F 56% 29.97 in - Calm Calm - N/A   Unknown
3:53 AM 30.9 °F 26.2 °F 19.0 °F 61% 29.98 in - South 4.6 mph - N/A   Unknown
4:53 AM 30.9 °F 25.2 °F 17.1 °F 57% 29.99 in - SSW 5.8 mph - N/A   Unknown
5:53 AM 28.9 °F - 18.0 °F 64% 30.00 in - Calm Calm - N/A   Unknown
6:53 AM 25.0 °F - 16.0 °F 69% 30.04 in - Calm Calm - N/A   Unknown
7:53 AM 32.0 °F - 19.0 °F 59% 30.02 in - Calm Calm - N/A   Unknown
8:53 AM 41.0 °F 38.0 °F 16.0 °F 36% 30.00 in - NNE 4.6 mph - N/A   Unknown
9:53 AM 45.0 °F 42.6 °F 17.1 °F 33% 29.99 in - ENE 4.6 mph - N/A   Unknown
10:53 AM 50.0 °F - 18.0 °F 28% 29.96 in - Calm Calm - N/A   Unknown
11:53 AM 55.9 °F - 17.1 °F 22% 29.94 in - NW 9.2 mph - N/A   Unknown
12:53 PM 57.0 °F - 16.0 °F 20% 29.91 in - Variable 5.8 mph - N/A   Unknown
1:53 PM 61.0 °F - 17.1 °F 18% 29.87 in - North 6.9 mph - N/A   Unknown
2:53 PM 61.0 °F - 16.0 °F 17% 29.85 in - WSW 11.5 mph 16.1 mph N/A   Unknown
3:53 PM 63.0 °F - 12.0 °F 14% 29.83 in - West 11.5 mph - N/A   Unknown
4:53 PM 63.0 °F - 8.1 °F 11% 29.81 in - West 9.2 mph 20.7 mph N/A   Unknown
5:53 PM 60.1 °F - 14.0 °F 16% 29.82 in - SSE 11.5 mph 17.3 mph N/A   Unknown
6:53 PM 55.0 °F - 16.0 °F 22% 29.85 in - South 8.1 mph - N/A   Unknown
7:53 PM 50.0 °F - 17.1 °F 27% 29.85 in - West 3.5 mph - N/A   Unknown
8:53 PM 45.0 °F 41.8 °F 17.1 °F 33% 29.85 in - South 5.8 mph - N/A   Unknown
9:53 PM 39.9 °F 34.5 °F 17.1 °F 40% 29.85 in - South 8.1 mph - N/A   Unknown
10:53 PM 37.0 °F 32.4 °F 18.0 °F 46% 29.84 in - South 5.8 mph - N/A   Unknown
11:53 PM 39.0 °F 32.3 °F 18.0 °F 43% 29.81 in - SSW 10.4 mph - N/A   Unknown